[[{"header":{"parameterUnit":"m.s-1","parameterCategory":1,"la1":30.2991,"la2":30.254,"lo1":-89.0895,"lo2":-89.0444,"dy":0.0017,"dx":0.0017,"nx":28,"ny":28,"refTime":"2024-12-19T03:00:00:Z","depth":0,"parameterNumber":2,"parameterNumberName":"U-component_of_WINDS"},"data":[0,0,0,0,0,0,0,0,0,0,0,0,0,0,0,0,0,0,0,0,0,0,0,0,0,0,0,0,0,0,0,0,0,0,0,0,0,0,0,0,0,0,0,0,0,0,0,0,0,0,0,0,0,0,0,0,0,0,3.3816,3.3817,0,3.3889,3.389,3.389,3.3885,3.3884,3.3883,3.3882,3.3956,3.3959,3.3962,0,0,0,0,0,0,0,0,0,0,0,0,0,3.3675,3.3677,3.3816,3.3817,3.3818,3.3889,3.389,3.3891,3.3886,3.3884,3.3883,3.3882,3.3955,3.3958,3.3962,0,0,0,0,0,0,0,0,0,0,0,0,0,3.3741,3.3678,3.3816,3.3824,3.3826,3.3888,3.389,3.3891,3.3886,3.3884,3.3883,3.3881,3.3954,3.3958,3.3962,3.4022,0,0,3.3976,3.3978,0,0,0,0,0,0,0,0,3.3737,3.3746,3.3822,3.3824,3.3825,3.3876,3.3867,3.3935,3.3886,3.3863,3.3882,3.388,3.3931,3.3937,3.3954,3.4025,3.4028,3.3976,3.3979,3.3981,3.3982,0,0,0,0,0,0,0,3.3732,3.3743,3.3845,3.3823,3.3825,3.3825,3.3832,3.388,3.3905,3.3865,3.3865,3.3873,3.3931,3.395,3.3956,3.4029,3.3976,3.398,3.3983,3.3985,3.4156,3.4157,0,0,0,0,0,0,3.3726,3.3739,3.3843,3.3847,3.3776,3.3828,3.3837,3.3862,3.3904,3.3909,3.3875,3.3873,3.3943,3.395,3.3958,3.4032,3.3981,3.3985,3.3987,3.4154,3.4156,3.4158,0,0,0,0,0,0,3.3723,3.3735,3.384,3.3793,3.3806,3.3833,3.386,3.3864,3.3882,3.3912,3.3916,3.3889,3.3942,3.3952,3.4007,3.4034,3.3987,3.3991,3.4152,3.4154,3.4157,3.4179,0,0,0,0,0,0,3.3719,3.3734,3.3756,3.3794,3.3809,3.3886,3.3862,3.3867,3.389,3.3888,3.3926,3.3931,3.3941,3.4,3.4011,3.404,3.3994,3.4149,3.4153,3.4156,3.4176,3.4182,3.4188,0,0,0,0,0,3.3714,3.3759,3.3758,3.377,3.3837,3.3888,3.3897,3.3908,3.3892,3.3915,3.3935,3.393,3.403,3.4006,3.4018,3.4048,3.4147,3.4152,3.4156,3.4173,3.4181,3.4188,0,0,0,0,0,0,3.3723,3.3764,3.3763,3.3821,3.3851,3.3887,3.3916,3.3916,3.395,3.3947,3.396,3.3969,3.4024,3.4042,3.4014,3.4109,3.4087,3.4093,3.4096,3.4103,3.4109,3.4103,3.3998,0,0,0,0,0,3.3733,3.377,3.3804,3.3852,3.3868,3.389,3.3912,3.3919,3.395,3.3963,3.3986,3.4017,3.4055,3.408,3.4117,3.4179,3.4188,3.4206,3.4212,3.4217,3.4222,3.4258,3.4267,3.4172,3.4172,3.4172,0,0,3.3751,3.3778,3.3801,3.3855,3.3879,3.3919,3.39,3.3942,3.3972,3.3969,3.4022,3.4041,3.4076,3.4135,3.4162,3.4151,3.4251,3.4222,3.4226,3.4229,3.4264,3.4273,3.4281,3.4175,3.4174,3.4174,0,0,3.3806,3.383,3.3874,3.3899,3.3936,3.3951,3.3962,3.3998,3.4011,3.4065,3.4064,3.41,3.4165,3.4191,3.4213,3.4281,3.4278,3.4293,3.4323,3.4358,3.4366,3.4372,3.4398,3.4406,3.4298,3.4298,3.4298,0,3.3825,3.3884,3.3896,3.3939,3.3964,3.3964,3.401,3.4033,3.4081,3.4098,3.4085,3.417,3.4193,3.4259,3.4276,3.4293,3.4307,3.4288,3.4364,3.437,3.4377,3.4401,3.4411,3.43,3.43,3.43,3.43,0,3.3906,3.3947,3.3978,3.4025,3.4053,3.4097,3.4117,3.4144,3.4149,3.4165,3.4221,3.425,3.4294,3.431,3.4315,3.4378,3.437,3.4361,3.4338,3.4387,3.4411,3.442,3.4302,3.4302,3.4301,3.4301,0,0,3.3966,3.4022,3.4033,3.4055,3.4098,3.413,3.4175,3.4219,3.4242,3.4275,3.4314,3.4371,3.4363,3.4388,3.4396,3.4427,3.448,3.4414,3.4415,3.4426,3.4553,3.456,3.4571,3.4479,3.4481,3.4482,3.4551,0,3.4026,3.4105,3.4119,3.4189,3.4228,3.4231,3.427,3.4301,3.4318,3.4355,3.4374,3.4414,3.44,3.4416,3.4446,3.4467,3.4506,3.4463,3.4516,3.4518,3.4507,3.4583,3.459,3.4653,3.456,3.4561,3.4562,0,3.4105,3.4142,3.4216,3.4256,3.4273,3.4308,3.435,3.4384,3.442,3.4431,3.446,3.4465,3.4513,3.4489,3.4555,3.4526,3.4549,3.4563,3.4565,3.457,3.4543,3.4591,3.4673,3.4683,3.4576,3.4575,3.4574,0,3.4144,3.4212,3.4265,3.4284,3.4331,3.4356,3.4377,3.4411,3.4437,3.4474,3.4492,3.4534,3.4557,3.459,3.4607,3.4588,3.4673,3.465,3.4684,3.4684,3.4701,3.47,3.4789,3.4716,3.4716,3.4715,3.4715,0,3.4209,3.4254,3.4283,3.4316,3.4368,3.4384,3.4435,3.4455,3.4486,3.4524,3.4528,3.4564,3.4584,3.4622,3.4636,3.469,3.47,3.4711,3.4714,3.471,3.4709,3.4725,3.4721,3.4718,3.4717,3.4717,3.4716,0,3.426,3.4281,3.434,3.438,3.4392,3.4428,3.4463,3.4496,3.4514,3.4561,3.4574,3.4602,3.4648,3.4668,3.4724,3.4734,3.4796,3.4796,3.4784,3.4785,3.4818,3.4815,3.4921,3.4936,3.4852,3.4853,3.4854,0,3.43,3.4335,3.438,3.4406,3.4428,3.4469,3.4496,3.4514,3.4543,3.4588,3.4615,3.4662,3.4699,3.4773,3.4799,3.4843,3.4844,3.4878,3.485,3.4847,3.4845,3.4843,3.4847,3.4883,3.4884,3.4884,3.4885,0,3.4369,3.4379,3.4418,3.4462,3.4494,3.453,3.4564,3.4585,3.4609,3.4641,3.4688,3.4718,3.4776,3.4823,3.4869,3.4891,3.4892,3.4894,3.4904,3.4901,3.4893,3.4899,3.4798,3.4891,3.489,3.489,3.4889,3.4889,3.4416,3.4449,3.4486,3.453,3.4558,3.4591,3.4625,3.4648,3.4688,3.4737,3.4745,3.4797,3.4834,3.4896,3.492,3.496,3.4952,3.4967,3.4971,3.4974,3.4977,3.4887,3.4969,3.4969,3.4968,3.4968,3.4968,0,3.4487,3.4511,3.4552,3.4601,3.4636,3.4636,3.4674,3.4704,3.4749,3.4784,3.4822,3.4877,3.4923,3.4954,3.5,3.5027,3.5029,3.5039,3.5037,3.5042,3.4981,3.4967,3.5036,3.5036,3.5036,3.5036,3.5036,3.5036,3.4527,3.4582,3.4597,3.4667,3.4691,3.4742,3.4764,3.4795,3.4823,3.4885,3.4923,3.4943,3.4977,3.5026,3.5069,3.5077,3.5094,3.5104,3.5112,3.5053,3.5046,3.5039,3.5027,3.5107,3.5108,3.517,3.517,3.5171]},{"header":{"parameterUnit":"m.s-1","parameterCategory":1,"la1":30.2991,"la2":30.254,"lo1":-89.0895,"lo2":-89.0444,"dy":0.0017,"dx":0.0017,"nx":28,"ny":28,"refTime":"2024-12-19T03:00:00:Z","depth":0,"parameterNumber":3,"parameterNumberName":"V-component_of_WINDS"},"data":[0,0,0,0,0,0,0,0,0,0,0,0,0,0,0,0,0,0,0,0,0,0,0,0,0,0,0,0,0,0,0,0,0,0,0,0,0,0,0,0,0,0,0,0,0,0,0,0,0,0,0,0,0,0,0,0,0,0,-5.4017,-5.4017,0,-5.4048,-5.4049,-5.4049,-5.4027,-5.4026,-5.4025,-5.4024,-5.4053,-5.4055,-5.4057,0,0,0,0,0,0,0,0,0,0,0,0,0,-5.3937,-5.3938,-5.4017,-5.4017,-5.4018,-5.4048,-5.4049,-5.4049,-5.4027,-5.4026,-5.4025,-5.4024,-5.4053,-5.4055,-5.4057,0,0,0,0,0,0,0,0,0,0,0,0,0,-5.397,-5.3939,-5.4017,-5.4011,-5.401,-5.4048,-5.4049,-5.4049,-5.4028,-5.4026,-5.4025,-5.4023,-5.4052,-5.4055,-5.4057,-5.4102,0,0,-5.4065,-5.4066,0,0,0,0,0,0,0,0,-5.3968,-5.3973,-5.4011,-5.4011,-5.4011,-5.4032,-5.4031,-5.4067,-5.4028,-5.4021,-5.4024,-5.4023,-5.4047,-5.405,-5.4059,-5.4103,-5.4104,-5.4065,-5.4066,-5.4067,-5.4068,0,0,0,0,0,0,0,-5.3966,-5.3971,-5.4029,-5.4012,-5.4012,-5.4006,-5.4009,-5.4038,-5.4042,-5.4021,-5.402,-5.4024,-5.4047,-5.4057,-5.406,-5.4105,-5.4065,-5.4067,-5.4069,-5.407,-5.4188,-5.419,0,0,0,0,0,0,-5.3964,-5.397,-5.4028,-5.403,-5.3986,-5.4008,-5.4012,-5.4027,-5.4041,-5.4042,-5.4025,-5.4023,-5.4053,-5.4057,-5.4061,-5.4114,-5.4067,-5.407,-5.4071,-5.4186,-5.4188,-5.419,0,0,0,0,0,0,-5.3963,-5.397,-5.4027,-5.4,-5.4006,-5.4011,-5.4028,-5.4028,-5.4038,-5.4044,-5.4045,-5.4035,-5.4052,-5.4057,-5.4092,-5.4115,-5.4071,-5.4073,-5.4185,-5.4187,-5.4189,-5.4222,0,0,0,0,0,0,-5.3961,-5.3969,-5.3986,-5.4,-5.4008,-5.4058,-5.403,-5.403,-5.4043,-5.404,-5.4053,-5.4054,-5.4051,-5.4088,-5.4095,-5.4118,-5.4075,-5.4182,-5.4186,-5.4189,-5.4219,-5.4225,-5.4231,0,0,0,0,0,-5.3958,-5.3993,-5.3987,-5.3994,-5.403,-5.406,-5.4064,-5.4061,-5.4045,-5.4062,-5.4066,-5.4054,-5.4112,-5.4092,-5.4099,-5.4123,-5.4181,-5.4185,-5.4188,-5.4216,-5.4224,-5.423,0,0,0,0,0,0,-5.398,-5.3995,-5.3988,-5.403,-5.4044,-5.4056,-5.4077,-5.4069,-5.4087,-5.4084,-5.4079,-5.4082,-5.4119,-5.4125,-5.4102,-5.4168,-5.4144,-5.4149,-5.4162,-5.417,-5.4176,-5.4173,-5.4077,0,0,0,0,0,-5.399,-5.4014,-5.4025,-5.4061,-5.4068,-5.4072,-5.4085,-5.4082,-5.4096,-5.4101,-5.4108,-5.4121,-5.4143,-5.4157,-5.4177,-5.422,-5.4223,-5.424,-5.4246,-5.4251,-5.4255,-5.4279,-5.4287,-5.4202,-5.4202,-5.4202,0,0,-5.401,-5.4021,-5.4036,-5.4066,-5.4076,-5.4101,-5.4077,-5.4103,-5.4121,-5.4105,-5.4139,-5.4145,-5.4159,-5.4199,-5.4217,-5.4205,-5.4279,-5.4256,-5.4259,-5.4261,-5.4284,-5.4292,-5.4299,-5.4205,-5.4204,-5.4204,0,0,-5.406,-5.4071,-5.4102,-5.4114,-5.4131,-5.4134,-5.4141,-5.4156,-5.4159,-5.4194,-5.4182,-5.4204,-5.424,-5.4252,-5.4262,-5.4319,-5.4308,-5.4326,-5.4356,-5.438,-5.4387,-5.4393,-5.4413,-5.442,-5.4331,-5.4331,-5.4331,0,-5.4082,-5.412,-5.4118,-5.4147,-5.416,-5.4149,-5.418,-5.4191,-5.4214,-5.4223,-5.421,-5.4257,-5.4266,-5.4309,-5.4323,-5.4332,-5.434,-5.4324,-5.4386,-5.4392,-5.4397,-5.4417,-5.4425,-5.4333,-5.4332,-5.4332,-5.4332,0,-5.4147,-5.4173,-5.4196,-5.422,-5.4236,-5.4266,-5.4269,-5.4285,-5.4282,-5.4286,-5.4322,-5.4333,-5.4355,-5.4366,-5.4361,-5.4408,-5.44,-5.4387,-5.4362,-5.4408,-5.4426,-5.4433,-5.4335,-5.4335,-5.4334,-5.4334,0,0,-5.4208,-5.4234,-5.4242,-5.4254,-5.4273,-5.4293,-5.4323,-5.4347,-5.4361,-5.4378,-5.4402,-5.4435,-5.4424,-5.4436,-5.4433,-5.4454,-5.4499,-5.4438,-5.4439,-5.4449,-5.4552,-5.4561,-5.457,-5.4493,-5.4495,-5.4496,-5.4551,0,-5.4259,-5.4312,-5.4313,-5.4361,-5.4386,-5.4377,-5.4403,-5.4417,-5.4423,-5.4444,-5.4449,-5.4473,-5.4456,-5.4463,-5.4484,-5.449,-5.452,-5.4486,-5.4515,-5.4516,-5.4511,-5.4579,-5.4589,-5.464,-5.4558,-5.4559,-5.456,0,-5.4324,-5.4345,-5.4396,-5.4414,-5.4425,-5.4448,-5.4471,-5.4492,-5.4509,-5.4511,-5.4526,-5.4521,-5.4552,-5.4528,-5.4569,-5.4546,-5.4559,-5.4564,-5.4566,-5.4567,-5.454,-5.4582,-5.4656,-5.4664,-5.4571,-5.457,-5.4569,0,-5.4364,-5.4405,-5.4441,-5.4451,-5.4473,-5.449,-5.45,-5.4516,-5.453,-5.455,-5.456,-5.4583,-5.4595,-5.4613,-5.4614,-5.4596,-5.4656,-5.4632,-5.4658,-5.4658,-5.467,-5.4669,-5.4746,-5.468,-5.468,-5.4679,-5.4679,0,-5.4419,-5.4451,-5.446,-5.4482,-5.4518,-5.4519,-5.4554,-5.4562,-5.4577,-5.46,-5.4594,-5.4616,-5.4617,-5.4639,-5.464,-5.4675,-5.468,-5.4683,-5.4683,-5.4683,-5.4683,-5.469,-5.4686,-5.4681,-5.4681,-5.4681,-5.468,0,-5.4469,-5.4476,-5.4515,-5.4534,-5.4539,-5.4565,-5.458,-5.4602,-5.4608,-5.4638,-5.4645,-5.4653,-5.468,-5.4684,-5.4714,-5.4715,-5.4756,-5.4753,-5.4751,-5.475,-5.4776,-5.4773,-5.486,-5.4872,-5.4798,-5.4799,-5.4799,0,-5.4503,-5.4528,-5.455,-5.4566,-5.4578,-5.4603,-5.4619,-5.4622,-5.4639,-5.4662,-5.468,-5.4707,-5.4728,-5.477,-5.4779,-5.4802,-5.4799,-5.4828,-5.4802,-5.4802,-5.4799,-5.4797,-5.48,-5.4832,-5.4833,-5.4834,-5.4834,0,-5.4563,-5.4567,-5.459,-5.4617,-5.4636,-5.4656,-5.4675,-5.4689,-5.4694,-5.4713,-5.4742,-5.4758,-5.4791,-5.4817,-5.4841,-5.485,-5.4843,-5.4843,-5.485,-5.485,-5.4848,-5.4849,-5.4764,-5.484,-5.4839,-5.4839,-5.4839,-5.4838,-5.4606,-5.4628,-5.4648,-5.4675,-5.4691,-5.4709,-5.4731,-5.474,-5.4764,-5.4792,-5.4792,-5.4823,-5.4841,-5.4873,-5.4884,-5.4908,-5.4898,-5.4909,-5.4911,-5.4914,-5.4916,-5.4845,-5.4912,-5.4912,-5.4912,-5.4912,-5.4912,0,-5.4666,-5.4679,-5.4704,-5.4732,-5.4754,-5.4748,-5.477,-5.4788,-5.4816,-5.4834,-5.4855,-5.4888,-5.4914,-5.4926,-5.4952,-5.4968,-5.4966,-5.4975,-5.4973,-5.4975,-5.4923,-5.4914,-5.4977,-5.4977,-5.4977,-5.4977,-5.4977,-5.4977,-5.4699,-5.4736,-5.4742,-5.4788,-5.48,-5.4832,-5.4845,-5.4862,-5.4876,-5.4914,-5.4936,-5.4945,-5.496,-5.4987,-5.5011,-5.5014,-5.5023,-5.5034,-5.5035,-5.4986,-5.4979,-5.4973,-5.4964,-5.5036,-5.5036,-5.5085,-5.5085,-5.5086]}]]